Year,Month,Day,Hour,Minute,Value (Times are PST for temperature in C)
2021,07,01,00,00,19.90
2021,07,01,00,01,20.00
2021,07,01,00,02,20.00
2021,07,01,00,03,20.00
2021,07,01,00,04,20.00
2021,07,01,00,05,20.00
2021,07,01,00,06,20.00
2021,07,01,00,07,20.00
2021,07,01,00,08,20.00
2021,07,01,00,09,20.00
2021,07,01,00,10,20.00
2021,07,01,00,11,20.00
2021,07,01,00,12,20.00
2021,07,01,00,13,19.90
2021,07,01,00,14,19.90
2021,07,01,00,15,19.90
2021,07,01,00,16,19.90
2021,07,01,00,17,19.90
2021,07,01,00,18,19.90
2021,07,01,00,19,19.90
2021,07,01,00,20,19.90
2021,07,01,00,21,19.80
2021,07,01,00,22,19.80
2021,07,01,00,23,19.80
2021,07,01,00,24,19.80
2021,07,01,00,25,19.80
2021,07,01,00,26,19.80
2021,07,01,00,27,19.80
2021,07,01,00,28,19.80
2021,07,01,00,29,19.80
2021,07,01,00,30,19.80
2021,07,01,00,31,19.80
2021,07,01,00,32,19.80
2021,07,01,00,33,19.80
2021,07,01,00,34,19.70
2021,07,01,00,35,19.70
2021,07,01,00,36,19.70
2021,07,01,00,37,19.60
2021,07,01,00,38,19.60
2021,07,01,00,39,19.50
2021,07,01,00,40,19.50
2021,07,01,00,41,19.50
2021,07,01,00,42,19.50
2021,07,01,00,43,19.50
2021,07,01,00,44,19.40
2021,07,01,00,45,19.40
2021,07,01,00,46,19.40
2021,07,01,00,47,19.40
2021,07,01,00,48,19.40
2021,07,01,00,49,19.40
2021,07,01,00,50,19.40
2021,07,01,00,51,19.40
2021,07,01,00,52,19.30
2021,07,01,00,53,19.30
2021,07,01,00,54,19.30
2021,07,01,00,55,19.30
2021,07,01,00,56,19.30
2021,07,01,00,57,19.30
2021,07,01,00,58,19.30
2021,07,01,00,59,19.30
2021,07,01,01,00,19.30
2021,07,01,01,01,19.30
2021,07,01,01,02,19.30
2021,07,01,01,03,19.30
2021,07,01,01,04,19.30
2021,07,01,01,05,19.20
2021,07,01,01,06,19.20
2021,07,01,01,07,19.20
2021,07,01,01,08,19.20
2021,07,01,01,09,19.20
2021,07,01,01,10,19.20
2021,07,01,01,11,19.20
2021,07,01,01,12,19.20
2021,07,01,01,13,19.20
2021,07,01,01,14,19.20
2021,07,01,01,15,19.20
2021,07,01,01,16,19.20
2021,07,01,01,17,19.20
2021,07,01,01,18,19.20
2021,07,01,01,19,19.20
2021,07,01,01,20,19.20
2021,07,01,01,21,19.20
2021,07,01,01,22,19.20
2021,07,01,01,23,19.20
2021,07,01,01,24,19.20
2021,07,01,01,25,19.20
2021,07,01,01,26,19.20
2021,07,01,01,27,19.30
2021,07,01,01,28,19.30
2021,07,01,01,29,19.30
2021,07,01,01,30,19.30
2021,07,01,01,31,19.30
2021,07,01,01,32,19.30
2021,07,01,01,33,19.20
2021,07,01,01,34,19.20
2021,07,01,01,35,19.20
2021,07,01,01,36,19.20
2021,07,01,01,37,19.20
2021,07,01,01,38,19.20
2021,07,01,01,39,19.20
2021,07,01,01,40,19.20
2021,07,01,01,41,19.20
2021,07,01,01,42,19.20
2021,07,01,01,43,19.10
2021,07,01,01,44,19.10
2021,07,01,01,45,19.10
2021,07,01,01,46,19.10
2021,07,01,01,47,19.00
2021,07,01,01,48,19.00
2021,07,01,01,49,19.00
2021,07,01,01,50,19.00
2021,07,01,01,51,19.00
2021,07,01,01,52,19.00
2021,07,01,01,53,19.00
2021,07,01,01,54,19.00
2021,07,01,01,55,18.90
2021,07,01,01,56,18.90
2021,07,01,01,57,18.90
2021,07,01,01,58,18.90
2021,07,01,01,59,18.90
2021,07,01,02,00,18.90
2021,07,01,02,01,18.90
2021,07,01,02,02,18.90
2021,07,01,02,03,18.80
2021,07,01,02,04,18.80
2021,07,01,02,05,18.80
2021,07,01,02,06,18.80
2021,07,01,02,07,18.80
2021,07,01,02,08,18.80
2021,07,01,02,09,18.80
2021,07,01,02,10,18.80
2021,07,01,02,11,18.80
2021,07,01,02,12,18.80
2021,07,01,02,13,18.80
2021,07,01,02,14,18.80
2021,07,01,02,15,18.80
2021,07,01,02,16,18.70
2021,07,01,02,17,18.70
2021,07,01,02,18,18.70
2021,07,01,02,19,18.70
2021,07,01,02,20,18.70
2021,07,01,02,21,18.70
2021,07,01,02,22,18.70
2021,07,01,02,23,18.70
2021,07,01,02,24,18.70
2021,07,01,02,25,18.70
2021,07,01,02,26,18.70
2021,07,01,02,27,18.70
2021,07,01,02,28,18.70
2021,07,01,02,29,18.70
2021,07,01,02,30,18.70
2021,07,01,02,31,18.70
2021,07,01,02,32,18.70
2021,07,01,02,33,18.70
2021,07,01,02,34,18.70
2021,07,01,02,35,18.70
2021,07,01,02,36,18.70
2021,07,01,02,37,18.70
2021,07,01,02,38,18.70
2021,07,01,02,39,18.70
2021,07,01,02,40,18.70
2021,07,01,02,41,18.70
2021,07,01,02,42,18.70
2021,07,01,02,43,18.70
2021,07,01,02,44,18.70
2021,07,01,02,45,18.70
2021,07,01,02,46,18.80
2021,07,01,02,47,18.80
2021,07,01,02,48,18.80
2021,07,01,02,49,18.80
2021,07,01,02,50,18.80
2021,07,01,02,51,18.80
2021,07,01,02,52,18.80
2021,07,01,02,53,18.80
2021,07,01,02,54,18.80
2021,07,01,02,55,18.80
2021,07,01,02,56,18.80
2021,07,01,02,57,18.80
2021,07,01,02,58,18.80
2021,07,01,02,59,18.80
2021,07,01,03,00,18.80
2021,07,01,03,01,18.80
2021,07,01,03,02,18.80
2021,07,01,03,03,18.80
2021,07,01,03,04,18.80
2021,07,01,03,05,18.80
2021,07,01,03,06,18.80
2021,07,01,03,07,18.80
2021,07,01,03,08,18.80
2021,07,01,03,09,18.70
2021,07,01,03,10,18.70
2021,07,01,03,11,18.70
2021,07,01,03,12,18.70
2021,07,01,03,13,18.70
2021,07,01,03,14,18.70
2021,07,01,03,15,18.70
2021,07,01,03,16,18.60
2021,07,01,03,17,18.60
2021,07,01,03,18,18.60
2021,07,01,03,19,18.60
2021,07,01,03,20,18.60
2021,07,01,03,21,18.60
2021,07,01,03,22,18.60
2021,07,01,03,23,18.60
2021,07,01,03,24,18.60
2021,07,01,03,25,18.60
2021,07,01,03,26,18.50
2021,07,01,03,27,18.50
2021,07,01,03,28,18.50
2021,07,01,03,29,18.50
2021,07,01,03,30,18.50
2021,07,01,03,31,18.50
2021,07,01,03,32,18.50
2021,07,01,03,33,18.50
2021,07,01,03,34,18.50
2021,07,01,03,35,18.40
2021,07,01,03,36,18.40
2021,07,01,03,37,18.30
2021,07,01,03,38,18.30
2021,07,01,03,39,18.30
2021,07,01,03,40,18.20
2021,07,01,03,41,18.20
2021,07,01,03,42,18.20
2021,07,01,03,43,18.10
2021,07,01,03,44,18.10
2021,07,01,03,45,18.10
2021,07,01,03,46,18.10
2021,07,01,03,47,18.20
2021,07,01,03,48,18.20
2021,07,01,03,49,18.10
2021,07,01,03,50,18.10
2021,07,01,03,51,18.10
2021,07,01,03,52,18.20
2021,07,01,03,53,18.20
2021,07,01,03,54,18.20
2021,07,01,03,55,18.20
2021,07,01,03,56,18.20
2021,07,01,03,57,18.20
2021,07,01,03,58,18.20
2021,07,01,03,59,18.20
2021,07,01,04,00,18.20
2021,07,01,04,01,18.20
2021,07,01,04,02,18.20
2021,07,01,04,03,18.20
2021,07,01,04,04,18.10
2021,07,01,04,05,18.10
2021,07,01,04,06,18.10
2021,07,01,04,07,18.10
2021,07,01,04,08,18.10
2021,07,01,04,09,18.00
2021,07,01,04,10,18.00
2021,07,01,04,11,18.00
2021,07,01,04,12,18.00
2021,07,01,04,13,17.90
2021,07,01,04,14,17.90
2021,07,01,04,15,17.90
2021,07,01,04,16,17.90
2021,07,01,04,17,17.80
2021,07,01,04,18,17.80
2021,07,01,04,19,17.80
2021,07,01,04,20,17.80
2021,07,01,04,21,17.80
2021,07,01,04,22,17.80
2021,07,01,04,23,17.80
2021,07,01,04,24,17.70
2021,07,01,04,25,17.70
2021,07,01,04,26,17.70
2021,07,01,04,27,17.70
2021,07,01,04,28,17.70
2021,07,01,04,29,17.70
2021,07,01,04,30,17.60
2021,07,01,04,31,17.60
2021,07,01,04,32,17.60
2021,07,01,04,33,17.50
2021,07,01,04,34,17.50
2021,07,01,04,35,17.40
2021,07,01,04,36,17.40
2021,07,01,04,37,17.30
2021,07,01,04,38,17.30
2021,07,01,04,39,17.30
2021,07,01,04,40,17.30
2021,07,01,04,41,17.30
2021,07,01,04,42,17.30
2021,07,01,04,43,17.30
2021,07,01,04,44,17.20
2021,07,01,04,45,17.20
2021,07,01,04,46,17.20
2021,07,01,04,47,17.20
2021,07,01,04,48,17.20
2021,07,01,04,49,17.20
2021,07,01,04,50,17.20
2021,07,01,04,51,17.20
2021,07,01,04,52,17.20
2021,07,01,04,53,17.10
2021,07,01,04,54,17.10
2021,07,01,04,55,17.10
2021,07,01,04,56,17.10
2021,07,01,04,57,17.10
2021,07,01,04,58,17.10
2021,07,01,04,59,17.00
2021,07,01,05,00,17.00
2021,07,01,05,01,17.00
2021,07,01,05,02,17.00
2021,07,01,05,03,17.00
2021,07,01,05,04,17.00
2021,07,01,05,05,17.10
2021,07,01,05,06,17.10
2021,07,01,05,07,17.10
2021,07,01,05,08,17.10
2021,07,01,05,09,17.10
2021,07,01,05,10,17.10
2021,07,01,05,11,17.10
2021,07,01,05,12,17.20
2021,07,01,05,13,17.20
2021,07,01,05,14,17.20
2021,07,01,05,15,17.20
2021,07,01,05,16,17.20
2021,07,01,05,17,17.20
2021,07,01,05,18,17.20
2021,07,01,05,19,17.20
2021,07,01,05,20,17.20
2021,07,01,05,21,17.20
2021,07,01,05,22,17.20
2021,07,01,05,23,17.20
2021,07,01,05,24,17.20
2021,07,01,05,25,17.20
2021,07,01,05,26,17.20
2021,07,01,05,27,17.20
2021,07,01,05,28,17.20
2021,07,01,05,29,17.20
2021,07,01,05,30,17.20
2021,07,01,05,31,17.20
2021,07,01,05,32,17.20
2021,07,01,05,33,17.20
2021,07,01,05,34,17.20
2021,07,01,05,35,17.20
2021,07,01,05,36,17.20
2021,07,01,05,37,17.20
2021,07,01,05,38,17.20
2021,07,01,05,39,17.20
2021,07,01,05,40,17.20
2021,07,01,05,41,17.20
2021,07,01,05,42,17.20
2021,07,01,05,43,17.20
2021,07,01,05,44,17.20
2021,07,01,05,45,17.20
2021,07,01,05,46,17.20
2021,07,01,05,47,17.20
2021,07,01,05,48,17.20
2021,07,01,05,49,17.20
2021,07,01,05,50,17.20
2021,07,01,05,51,17.20
2021,07,01,05,52,17.20
2021,07,01,05,53,17.20
2021,07,01,05,54,17.20
2021,07,01,05,55,17.20
2021,07,01,05,56,17.20
2021,07,01,05,57,17.20
2021,07,01,05,58,17.20
2021,07,01,05,59,17.20
2021,07,01,06,00,17.20
2021,07,01,06,01,17.20
2021,07,01,06,02,17.20
2021,07,01,06,03,17.20
2021,07,01,06,04,17.20
2021,07,01,06,05,17.20
2021,07,01,06,06,17.20
2021,07,01,06,07,17.10
2021,07,01,06,08,17.10
2021,07,01,06,09,17.10
2021,07,01,06,10,17.10
2021,07,01,06,11,17.10
2021,07,01,06,12,17.10
2021,07,01,06,13,17.10
2021,07,01,06,14,17.20
2021,07,01,06,15,17.20
2021,07,01,06,16,17.20
2021,07,01,06,17,17.20
2021,07,01,06,18,17.20
2021,07,01,06,19,17.20
2021,07,01,06,20,17.20
2021,07,01,06,21,17.20
2021,07,01,06,22,17.20
2021,07,01,06,23,17.20
2021,07,01,06,24,17.10
2021,07,01,06,25,17.10
2021,07,01,06,26,17.10
2021,07,01,06,27,17.10
2021,07,01,06,28,17.10
2021,07,01,06,29,17.10
2021,07,01,06,30,17.10
2021,07,01,06,31,17.10
2021,07,01,06,32,17.10
2021,07,01,06,33,17.10
2021,07,01,06,34,17.10
2021,07,01,06,35,17.10
2021,07,01,06,36,17.10
2021,07,01,06,37,17.10
2021,07,01,06,38,17.10
2021,07,01,06,39,17.10
2021,07,01,06,40,17.10
2021,07,01,06,41,17.10
2021,07,01,06,42,17.10
2021,07,01,06,43,17.10
2021,07,01,06,44,17.10
2021,07,01,06,45,17.10
2021,07,01,06,46,17.10
2021,07,01,06,47,17.20
2021,07,01,06,48,17.20
2021,07,01,06,49,17.20
2021,07,01,06,50,17.20
2021,07,01,06,51,17.20
2021,07,01,06,52,17.20
2021,07,01,06,53,17.20
2021,07,01,06,54,17.20
2021,07,01,06,55,17.20
2021,07,01,06,56,17.20
2021,07,01,06,57,17.20
2021,07,01,06,58,17.20
2021,07,01,06,59,17.20
2021,07,01,07,00,17.20
2021,07,01,07,01,17.20
2021,07,01,07,02,17.10
2021,07,01,07,03,17.10
2021,07,01,07,04,17.10
2021,07,01,07,05,17.10
2021,07,01,07,06,17.10
2021,07,01,07,07,17.10
2021,07,01,07,08,17.10
2021,07,01,07,09,17.10
2021,07,01,07,10,17.10
2021,07,01,07,11,17.10
2021,07,01,07,12,17.10
2021,07,01,07,13,17.10
2021,07,01,07,14,17.10
2021,07,01,07,15,17.10
2021,07,01,07,16,17.10
2021,07,01,07,17,17.10
2021,07,01,07,18,17.20
2021,07,01,07,19,17.20
2021,07,01,07,20,17.20
2021,07,01,07,21,17.20
2021,07,01,07,22,17.20
2021,07,01,07,23,17.20
2021,07,01,07,24,17.20
2021,07,01,07,25,17.20
2021,07,01,07,26,17.20
2021,07,01,07,27,17.20
2021,07,01,07,28,17.20
2021,07,01,07,29,17.20
2021,07,01,07,30,17.20
2021,07,01,07,31,17.20
2021,07,01,07,32,17.20
2021,07,01,07,33,17.20
2021,07,01,07,34,17.10
2021,07,01,07,35,17.10
2021,07,01,07,36,17.10
2021,07,01,07,37,17.10
2021,07,01,07,38,17.10
2021,07,01,07,39,17.10
2021,07,01,07,40,17.10
2021,07,01,07,41,17.10
2021,07,01,07,42,17.10
2021,07,01,07,43,17.10
2021,07,01,07,44,17.10
2021,07,01,07,45,17.10
2021,07,01,07,46,17.10
2021,07,01,07,47,17.10
2021,07,01,07,48,17.10
2021,07,01,07,49,17.10
2021,07,01,07,50,17.10
2021,07,01,07,51,17.10
2021,07,01,07,52,17.10
2021,07,01,07,53,17.20
2021,07,01,07,54,17.20
2021,07,01,07,55,17.20
2021,07,01,07,56,17.20
2021,07,01,07,57,17.20
2021,07,01,07,58,17.20
2021,07,01,07,59,17.20
2021,07,01,08,00,17.20
2021,07,01,08,01,17.20
2021,07,01,08,02,17.20
2021,07,01,08,03,17.20
2021,07,01,08,04,17.20
2021,07,01,08,05,17.30
2021,07,01,08,06,17.30
2021,07,01,08,07,17.20
2021,07,01,08,08,17.20
2021,07,01,08,09,17.10
2021,07,01,08,10,17.10
2021,07,01,08,11,17.00
2021,07,01,08,12,17.00
2021,07,01,08,13,16.90
2021,07,01,08,14,17.00
2021,07,01,08,15,17.00
2021,07,01,08,16,17.00
2021,07,01,08,17,16.90
2021,07,01,08,18,16.90
2021,07,01,08,19,16.90
2021,07,01,08,20,16.80
2021,07,01,08,21,16.80
2021,07,01,08,22,16.80
2021,07,01,08,23,16.80
2021,07,01,08,24,16.90
2021,07,01,08,25,16.90
2021,07,01,08,26,16.90
2021,07,01,08,27,16.90
2021,07,01,08,28,16.90
2021,07,01,08,29,16.90
2021,07,01,08,30,16.90
2021,07,01,08,31,16.90
2021,07,01,08,32,17.00
2021,07,01,08,33,17.00
2021,07,01,08,34,17.00
2021,07,01,08,35,16.90
2021,07,01,08,36,16.90
2021,07,01,08,37,16.90
2021,07,01,08,38,16.80
2021,07,01,08,39,16.80
2021,07,01,08,40,16.80
2021,07,01,08,41,16.80
2021,07,01,08,42,16.80
2021,07,01,08,43,16.80
2021,07,01,08,44,16.80
2021,07,01,08,45,16.80
2021,07,01,08,46,16.80
2021,07,01,08,47,16.80
2021,07,01,08,48,16.80
2021,07,01,08,49,16.80
2021,07,01,08,50,16.90
2021,07,01,08,51,16.90
2021,07,01,08,52,17.00
2021,07,01,08,53,17.00
2021,07,01,08,54,17.00
2021,07,01,08,55,17.10
2021,07,01,08,56,17.10
2021,07,01,08,57,17.10
2021,07,01,08,58,17.10
2021,07,01,08,59,17.10
2021,07,01,09,00,17.10
2021,07,01,09,01,17.10
2021,07,01,09,02,17.10
2021,07,01,09,03,17.10
2021,07,01,09,04,17.10
2021,07,01,09,05,17.10
2021,07,01,09,06,17.20
2021,07,01,09,07,17.20
2021,07,01,09,08,17.20
2021,07,01,09,09,17.20
2021,07,01,09,10,17.20
2021,07,01,09,11,17.30
2021,07,01,09,12,17.30
2021,07,01,09,13,17.20
2021,07,01,09,14,17.20
2021,07,01,09,15,17.20
2021,07,01,09,16,17.20
2021,07,01,09,17,17.20
2021,07,01,09,18,17.20
2021,07,01,09,19,17.20
2021,07,01,09,20,17.20
2021,07,01,09,21,17.20
2021,07,01,09,22,17.20
2021,07,01,09,23,17.20
2021,07,01,09,24,17.30
2021,07,01,09,25,17.30
2021,07,01,09,26,17.30
2021,07,01,09,27,17.30
2021,07,01,09,28,17.30
2021,07,01,09,29,17.30
2021,07,01,09,30,17.30
2021,07,01,09,31,17.30
2021,07,01,09,32,17.30
2021,07,01,09,33,17.30
2021,07,01,09,34,17.30
2021,07,01,09,35,17.30
2021,07,01,09,36,17.30
2021,07,01,09,37,17.30
2021,07,01,09,38,17.30
2021,07,01,09,39,17.30
2021,07,01,09,40,17.30
2021,07,01,09,41,17.30
2021,07,01,09,42,17.30
2021,07,01,09,43,17.30
2021,07,01,09,44,17.30
2021,07,01,09,45,17.40
2021,07,01,09,46,17.40
2021,07,01,09,47,17.40
2021,07,01,09,48,17.40
2021,07,01,09,49,17.50
2021,07,01,09,50,17.50
2021,07,01,09,51,17.50
2021,07,01,09,52,17.50
2021,07,01,09,53,17.60
2021,07,01,09,54,17.60
2021,07,01,09,55,17.60
2021,07,01,09,56,17.70
2021,07,01,09,57,17.70
2021,07,01,09,58,17.70
2021,07,01,09,59,17.70
2021,07,01,10,00,17.80
2021,07,01,10,01,17.80
2021,07,01,10,02,17.80
2021,07,01,10,03,17.80
2021,07,01,10,04,17.80
2021,07,01,10,05,17.80
2021,07,01,10,06,17.80
2021,07,01,10,07,17.80
2021,07,01,10,08,17.80
2021,07,01,10,09,17.80
2021,07,01,10,10,17.80
2021,07,01,10,11,17.90
2021,07,01,10,12,17.90
2021,07,01,10,13,17.90
2021,07,01,10,14,17.90
2021,07,01,10,15,17.90
2021,07,01,10,16,17.90
2021,07,01,10,17,17.90
2021,07,01,10,18,17.90
2021,07,01,10,19,17.90
2021,07,01,10,20,17.90
2021,07,01,10,21,18.00
2021,07,01,10,22,18.00
2021,07,01,10,23,18.10
2021,07,01,10,24,18.20
2021,07,01,10,25,18.20
2021,07,01,10,26,18.20
2021,07,01,10,27,18.30
2021,07,01,10,28,18.30
2021,07,01,10,29,18.30
2021,07,01,10,30,18.40
2021,07,01,10,31,18.40
2021,07,01,10,32,18.50
2021,07,01,10,33,18.60
2021,07,01,10,34,18.60
2021,07,01,10,35,18.60
2021,07,01,10,36,18.60
2021,07,01,10,37,18.60
2021,07,01,10,38,18.60
2021,07,01,10,39,18.60
2021,07,01,10,40,18.70
2021,07,01,10,41,18.70
2021,07,01,10,42,18.70
2021,07,01,10,43,18.70
2021,07,01,10,44,18.70
2021,07,01,10,45,18.80
2021,07,01,10,46,18.80
2021,07,01,10,47,18.80
2021,07,01,10,48,18.80
2021,07,01,10,49,18.80
2021,07,01,10,50,18.80
2021,07,01,10,51,18.80
2021,07,01,10,52,18.80
2021,07,01,10,53,18.80
2021,07,01,10,54,18.80
2021,07,01,10,55,18.90
2021,07,01,10,56,19.00
2021,07,01,10,57,19.00
2021,07,01,10,58,19.10
2021,07,01,10,59,19.20
2021,07,01,11,00,19.20
2021,07,01,11,01,19.20
2021,07,01,11,02,19.30
2021,07,01,11,03,19.30
2021,07,01,11,04,19.30
2021,07,01,11,05,19.30
2021,07,01,11,06,19.30
2021,07,01,11,07,19.30
2021,07,01,11,08,19.30
2021,07,01,11,09,19.30
2021,07,01,11,10,19.30
2021,07,01,11,11,19.30
2021,07,01,11,12,19.30
2021,07,01,11,13,19.30
2021,07,01,11,14,19.40
2021,07,01,11,15,19.40
2021,07,01,11,16,19.40
2021,07,01,11,17,19.50
2021,07,01,11,18,19.60
2021,07,01,11,19,19.60
2021,07,01,11,20,19.70
2021,07,01,11,21,19.70
2021,07,01,11,22,19.70
2021,07,01,11,23,19.80
2021,07,01,11,24,19.80
2021,07,01,11,25,19.90
2021,07,01,11,26,20.00
2021,07,01,11,27,20.20
2021,07,01,11,28,20.20
2021,07,01,11,29,20.30
2021,07,01,11,30,20.30
2021,07,01,11,31,20.30
2021,07,01,11,32,20.30
2021,07,01,11,33,20.30
2021,07,01,11,34,20.30
2021,07,01,11,35,20.30
2021,07,01,11,36,20.30
2021,07,01,11,37,20.30
2021,07,01,11,38,20.30
2021,07,01,11,39,20.30
2021,07,01,11,40,20.30
2021,07,01,11,41,20.30
2021,07,01,11,42,20.40
2021,07,01,11,43,20.50
2021,07,01,11,44,20.60
2021,07,01,11,45,20.60
2021,07,01,11,46,20.60
2021,07,01,11,47,20.70
2021,07,01,11,48,20.70
2021,07,01,11,49,20.70
2021,07,01,11,50,20.70
2021,07,01,11,51,20.70
2021,07,01,11,52,20.70
2021,07,01,11,53,20.80
2021,07,01,11,54,20.90
2021,07,01,11,55,20.90
2021,07,01,11,56,21.00
2021,07,01,11,57,21.10
2021,07,01,11,58,21.20
2021,07,01,11,59,21.30
2021,07,01,12,00,21.50
2021,07,01,12,01,21.60
2021,07,01,12,02,21.80
2021,07,01,12,03,21.80
2021,07,01,12,04,21.80
2021,07,01,12,05,21.80
2021,07,01,12,06,21.90
2021,07,01,12,07,21.90
2021,07,01,12,08,22.00
2021,07,01,12,09,22.10
2021,07,01,12,10,22.20
2021,07,01,12,11,22.30
2021,07,01,12,12,22.40
2021,07,01,12,13,22.50
2021,07,01,12,14,22.60
2021,07,01,12,15,22.60
2021,07,01,12,16,22.70
2021,07,01,12,17,22.70
2021,07,01,12,18,22.70
2021,07,01,12,19,22.80
2021,07,01,12,20,22.90
2021,07,01,12,21,22.90
2021,07,01,12,22,22.90
2021,07,01,12,23,22.80
2021,07,01,12,24,22.80
2021,07,01,12,25,22.70
2021,07,01,12,26,22.70
2021,07,01,12,27,22.70
2021,07,01,12,28,22.60
2021,07,01,12,29,22.60
2021,07,01,12,30,22.60
2021,07,01,12,31,22.50
2021,07,01,12,32,22.50
2021,07,01,12,33,22.40
2021,07,01,12,34,22.30
2021,07,01,12,35,22.20
2021,07,01,12,36,22.10
2021,07,01,12,37,22.00
2021,07,01,12,38,21.90
2021,07,01,12,39,21.90
2021,07,01,12,40,21.90
2021,07,01,12,41,21.80
2021,07,01,12,42,21.80
2021,07,01,12,43,21.80
2021,07,01,12,44,21.90
2021,07,01,12,45,21.90
2021,07,01,12,46,21.90
2021,07,01,12,47,22.00
2021,07,01,12,48,22.00
2021,07,01,12,49,21.90
2021,07,01,12,50,21.90
2021,07,01,12,51,21.90
2021,07,01,12,52,21.90
2021,07,01,12,53,21.90
2021,07,01,12,54,21.90
2021,07,01,12,55,21.90
2021,07,01,12,56,21.80
2021,07,01,12,57,21.80
2021,07,01,12,58,21.70
2021,07,01,12,59,21.80
2021,07,01,13,00,21.80
2021,07,01,13,01,21.70
2021,07,01,13,02,21.60
2021,07,01,13,03,21.50
2021,07,01,13,04,21.50
2021,07,01,13,05,21.50
2021,07,01,13,06,21.50
2021,07,01,13,07,21.50
2021,07,01,13,08,21.50
2021,07,01,13,09,21.40
2021,07,01,13,10,21.40
2021,07,01,13,11,21.30
2021,07,01,13,12,21.30
2021,07,01,13,13,21.30
2021,07,01,13,14,21.30
2021,07,01,13,15,21.30
2021,07,01,13,16,21.30
2021,07,01,13,17,21.30
2021,07,01,13,18,21.30
2021,07,01,13,19,21.30
2021,07,01,13,20,21.40
2021,07,01,13,21,21.30
2021,07,01,13,22,21.30
2021,07,01,13,23,21.30
2021,07,01,13,24,21.30
2021,07,01,13,25,21.30
2021,07,01,13,26,21.30
2021,07,01,13,27,21.30
2021,07,01,13,28,21.30
2021,07,01,13,29,21.30
2021,07,01,13,30,21.30
2021,07,01,13,31,21.30
2021,07,01,13,32,21.30
2021,07,01,13,33,21.30
2021,07,01,13,34,21.30
2021,07,01,13,35,21.20
2021,07,01,13,36,21.20
2021,07,01,13,37,21.20
2021,07,01,13,38,21.20
2021,07,01,13,39,21.20
2021,07,01,13,40,21.20
2021,07,01,13,41,21.20
2021,07,01,13,42,21.30
2021,07,01,13,43,21.20
2021,07,01,13,44,21.20
2021,07,01,13,45,21.20
2021,07,01,13,46,21.10
2021,07,01,13,47,21.10
2021,07,01,13,48,21.10
2021,07,01,13,49,21.10
2021,07,01,13,50,21.10
2021,07,01,13,51,21.20
2021,07,01,13,52,21.20
2021,07,01,13,53,21.20
2021,07,01,13,54,21.30
2021,07,01,13,55,21.30
2021,07,01,13,56,21.30
2021,07,01,13,57,21.30
2021,07,01,13,58,21.30
2021,07,01,13,59,21.30
2021,07,01,14,00,21.40
2021,07,01,14,01,21.40
2021,07,01,14,02,21.40
2021,07,01,14,03,21.40
2021,07,01,14,04,21.40
2021,07,01,14,05,21.30
2021,07,01,14,06,21.30
2021,07,01,14,07,21.30
2021,07,01,14,08,21.30
2021,07,01,14,09,21.30
2021,07,01,14,10,21.30
2021,07,01,14,11,21.20
2021,07,01,14,12,21.20
2021,07,01,14,13,21.20
2021,07,01,14,14,21.20
2021,07,01,14,15,21.20
2021,07,01,14,16,21.20
2021,07,01,14,17,21.20
2021,07,01,14,18,21.20
2021,07,01,14,19,21.20
2021,07,01,14,20,21.20
2021,07,01,14,21,21.20
2021,07,01,14,22,21.20
2021,07,01,14,23,21.30
2021,07,01,14,24,21.30
2021,07,01,14,25,21.40
2021,07,01,14,26,21.50
2021,07,01,14,27,21.60
2021,07,01,14,28,21.60
2021,07,01,14,29,21.70
2021,07,01,14,30,21.70
2021,07,01,14,31,21.70
2021,07,01,14,32,21.70
2021,07,01,14,33,21.60
2021,07,01,14,34,21.60
2021,07,01,14,35,21.60
2021,07,01,14,36,21.60
2021,07,01,14,37,21.60
2021,07,01,14,38,21.60
2021,07,01,14,39,21.60
2021,07,01,14,40,21.70
2021,07,01,14,41,21.70
2021,07,01,14,42,21.80
2021,07,01,14,43,21.80
2021,07,01,14,44,21.90
2021,07,01,14,45,22.00
2021,07,01,14,46,22.00
2021,07,01,14,47,22.10
2021,07,01,14,48,22.00
2021,07,01,14,49,22.00
2021,07,01,14,50,22.00
2021,07,01,14,51,22.00
2021,07,01,14,52,22.10
2021,07,01,14,53,22.10
2021,07,01,14,54,22.10
2021,07,01,14,55,22.00
2021,07,01,14,56,22.10
2021,07,01,14,57,22.10
2021,07,01,14,58,22.10
2021,07,01,14,59,22.10
2021,07,01,15,00,22.20
2021,07,01,15,01,22.20
2021,07,01,15,02,22.30
2021,07,01,15,03,22.30
2021,07,01,15,04,22.30
2021,07,01,15,05,22.30
2021,07,01,15,06,22.30
2021,07,01,15,07,22.30
2021,07,01,15,08,22.30
2021,07,01,15,09,22.30
2021,07,01,15,10,22.30
2021,07,01,15,11,22.30
2021,07,01,15,12,22.30
2021,07,01,15,13,22.20
2021,07,01,15,14,22.20
2021,07,01,15,15,22.20
2021,07,01,15,16,22.20
2021,07,01,15,17,22.20
2021,07,01,15,18,22.20
2021,07,01,15,19,22.20
2021,07,01,15,20,22.30
2021,07,01,15,21,22.30
2021,07,01,15,22,22.20
2021,07,01,15,23,22.20
2021,07,01,15,24,22.20
2021,07,01,15,25,22.10
2021,07,01,15,26,22.10
2021,07,01,15,27,22.00
2021,07,01,15,28,22.00
2021,07,01,15,29,22.00
2021,07,01,15,30,22.00
2021,07,01,15,31,22.00
2021,07,01,15,32,22.10
2021,07,01,15,33,22.10
2021,07,01,15,34,22.20
2021,07,01,15,35,22.20
2021,07,01,15,36,22.30
2021,07,01,15,37,22.40
2021,07,01,15,38,22.50
2021,07,01,15,39,22.50
2021,07,01,15,40,22.60
2021,07,01,15,41,22.60
2021,07,01,15,42,22.60
2021,07,01,15,43,22.60
2021,07,01,15,44,22.60
2021,07,01,15,45,22.50
2021,07,01,15,46,22.50
2021,07,01,15,47,22.40
2021,07,01,15,48,22.40
2021,07,01,15,49,22.40
2021,07,01,15,50,22.50
2021,07,01,15,51,22.50
2021,07,01,15,52,22.60
2021,07,01,15,53,22.60
2021,07,01,15,54,22.60
2021,07,01,15,55,22.70
2021,07,01,15,56,22.70
2021,07,01,15,57,22.70
2021,07,01,15,58,22.70
2021,07,01,15,59,22.60
2021,07,01,16,00,22.70
2021,07,01,16,01,22.70
2021,07,01,16,02,22.70
2021,07,01,16,03,22.70
2021,07,01,16,04,22.70
2021,07,01,16,05,22.80
2021,07,01,16,06,22.80
2021,07,01,16,07,22.80
2021,07,01,16,08,22.80
2021,07,01,16,09,22.80
2021,07,01,16,10,22.80
2021,07,01,16,11,22.80
2021,07,01,16,12,22.80
2021,07,01,16,13,22.80
2021,07,01,16,14,22.90
2021,07,01,16,15,22.90
2021,07,01,16,16,22.90
2021,07,01,16,17,22.90
2021,07,01,16,18,22.90
2021,07,01,16,19,22.90
2021,07,01,16,20,23.00
2021,07,01,16,21,23.00
2021,07,01,16,22,23.10
2021,07,01,16,23,23.20
2021,07,01,16,24,23.20
2021,07,01,16,25,23.20
2021,07,01,16,26,23.10
2021,07,01,16,27,23.10
2021,07,01,16,28,23.10
2021,07,01,16,29,23.20
2021,07,01,16,30,23.20
2021,07,01,16,31,23.20
2021,07,01,16,32,23.30
2021,07,01,16,33,23.30
2021,07,01,16,34,23.40
2021,07,01,16,35,23.50
2021,07,01,16,36,23.50
2021,07,01,16,37,23.50
2021,07,01,16,38,23.50
2021,07,01,16,39,23.50
2021,07,01,16,40,23.40
2021,07,01,16,41,23.40
2021,07,01,16,42,23.50
2021,07,01,16,43,23.50
2021,07,01,16,44,23.50
2021,07,01,16,45,23.60
2021,07,01,16,46,23.70
2021,07,01,16,47,23.70
2021,07,01,16,48,23.80
2021,07,01,16,49,23.80
2021,07,01,16,50,23.80
2021,07,01,16,51,23.70
2021,07,01,16,52,23.70
2021,07,01,16,53,23.70
2021,07,01,16,54,23.70
2021,07,01,16,55,23.70
2021,07,01,16,56,23.80
2021,07,01,16,57,23.80
2021,07,01,16,58,23.80
2021,07,01,16,59,23.80
2021,07,01,17,00,23.80
2021,07,01,17,01,23.70
2021,07,01,17,02,23.70
2021,07,01,17,03,23.70
2021,07,01,17,04,23.70
2021,07,01,17,05,23.70
2021,07,01,17,06,23.70
2021,07,01,17,07,23.70
2021,07,01,17,08,23.70
2021,07,01,17,09,23.80
2021,07,01,17,10,23.80
2021,07,01,17,11,23.80
2021,07,01,17,12,23.90
2021,07,01,17,13,23.90
2021,07,01,17,14,23.90
2021,07,01,17,15,24.00
2021,07,01,17,16,24.00
2021,07,01,17,17,23.90
2021,07,01,17,18,24.00
2021,07,01,17,19,23.90